Location: Hiram
(41.3130°N, 81.1440°W)
Time: 02:17:23
(UTC-04:00)

Iridium 62 - Visible Passes

Search period start: 24 July 2014 00:00
Search period end: 03 August 2014 00:00
Orbit: 776 x 779 km, 86.4° (Epoch: 23 July)

Date Brightness Start Highest point End Pass type
(mag) Time Alt. Az. Time Alt. Az. Time Alt. Az.
24 Jul 7.4 00:56:12 24° ENE 00:56:12 24° ENE 01:00:02 10° NNE visible
24 Jul 6.7 02:36:41 37° WNW 02:36:41 37° WNW 02:41:12 10° NNW visible
25 Jul 8.0 00:22:50 14° ENE 00:22:50 14° ENE 00:25:09 10° NE visible
25 Jul 6.1 02:03:18 63° NW 02:03:18 63° NW 02:07:57 10° N visible
26 Jul 6.2 01:29:55 58° NE 01:29:55 58° NE 01:34:24 10° N visible
26 Jul 7.9 03:10:23 15° WNW 03:10:27 15° WNW 03:13:18 10° NW visible
27 Jul 7.0 00:56:32 34° ENE 00:56:32 34° ENE 01:00:32 10° NNE visible
27 Jul 7.3 02:37:00 26° WNW 02:37:00 26° WNW 02:40:57 10° NNW visible
28 Jul 7.6 00:23:08 19° ENE 00:23:08 19° ENE 00:26:14 10° NE visible
28 Jul 6.6 02:03:36 44° WNW 02:03:36 44° WNW 02:07:56 10° N visible
28 Jul 8.2 23:49:44 10° ENE 23:49:44 10° ENE 23:50:09 10° ENE visible
29 Jul 6.2 01:30:12 63° N 01:30:12 63° N 01:34:33 10° N visible
30 Jul 6.6 00:56:48 45° NE 00:56:48 45° NE 01:00:53 10° NNE visible
30 Jul 7.7 02:37:16 18° WNW 02:37:16 18° WNW 02:40:29 10° NNW visible
31 Jul 7.3 00:23:24 26° ENE 00:23:24 26° ENE 00:26:53 10° NNE visible
31 Jul 7.1 02:03:52 31° WNW 02:03:52 31° WNW 02:07:47 10° NNW visible
31 Jul 7.9 23:49:59 15° ENE 23:49:59 15° ENE 23:52:15 10° NE visible
01 Aug 6.5 01:30:27 51° NW 01:30:27 51° NW 01:34:36 10° N visible
02 Aug 6.4 00:57:01 54° NNE 00:57:01 54° NNE 01:01:07 10° N visible
02 Aug 8.1 02:37:30 13° WNW 02:37:30 13° WNW 02:39:32 10° NW visible
